Farmington, NM

7:53 PM MST on February 24, 2017 (GMT -0700)
Four Corners Regional

Weather History for KFMN - December, 2012

Change the Weather History Date:

Monday, December 3, 2012

  Actual Average Record
Temperature  
Mean Temperature 44 °F -  
Max Temperature 57 °F 44 °F 60 °F (2010)
Min Temperature 32 °F 22 °F 3 °F (1991)
Degree Days  
Heating Degree Days 20    
Moisture  
Dew Point 27 °F    
Average Humidity 48    
Maximum Humidity 73    
Minimum Humidity 30    
Precipitation  
Precipitation 0.00 in - - ()
Sea Level Pressure  
Sea Level Pressure 30.11 in    
Wind  
Wind Speed 6 mph (NW)    
Max Wind Speed 23 mph    
Max Gust Speed 31 mph    
Visibility 10 miles    
Events      
Averages and records for this station are not official NWS values.
T = Trace of Precipitation, MM = Missing Value Source: NWS Daily Summary

Daily Weather History Graph

Daily Weather History Graph

Search for Another Location

Airport or City:

Trip Planner

Search our weather history database for the weather conditions in past years. The results will help you decide how hot, cold, wet, or windy it might be!

Date:

Astronomy

Dec. 03, 2012 Rise Set
Actual Time 7:09 AM MST 4:56 PM MST
Civil Twilight 6:40 AM MST 5:25 PM MST
Nautical Twilight 6:08 AM MST 5:57 PM MST
Astronomical Twilight 5:37 AM MST 6:28 PM MST
Moon 9:42 PM MST (12/3) 10:37 AM MST (12/3)
Length of Visible Light 10h 44m
Length of Day
9h 47m
Waning Gibbous, 77% of the Moon is Illuminated
Dec 3
Waning Gibbous
Dec 6
Last Quarter
Dec 13
New
Dec 19
First Quarter
Dec 28
Full

Hourly Weather History & Observations

Time (MST) Temp. Windchill Dew Point Humidity Pressure Visibility Wind Dir Wind Speed Gust Speed Precip Events Conditions
12:53 AM 37.9 °F 35.5 °F 19.0 °F 47% 29.99 in 10.0 mi ENE 3.5 mph - N/A   Clear
1:53 AM 36.0 °F 33.3 °F 19.0 °F 50% 29.99 in 10.0 mi NE 3.5 mph - N/A   Clear
2:53 AM 35.1 °F 32.2 °F 19.9 °F 54% 30.01 in 10.0 mi East 3.5 mph - N/A   Clear
3:53 AM 32.0 °F 28.7 °F 19.0 °F 59% 30.03 in 10.0 mi NNE 3.5 mph - N/A   Clear
5:53 AM 33.1 °F 28.7 °F 19.9 °F 59% 30.11 in 10.0 mi ENE 4.6 mph - N/A   Scattered Clouds
6:53 AM 32.0 °F 24.2 °F 19.9 °F 61% 30.14 in 10.0 mi ENE 9.2 mph - N/A   Partly Cloudy
7:53 AM 35.1 °F - 21.0 °F 57% 30.11 in 10.0 mi Calm Calm - N/A   Clear
8:53 AM 41.0 °F 39.0 °F 21.9 °F 47% 30.12 in 10.0 mi East 3.5 mph - N/A   Clear
9:53 AM 46.9 °F - 27.0 °F 46% 30.11 in 10.0 mi West 4.6 mph - N/A   Clear
10:53 AM 54.0 °F - 32.0 °F 43% 30.08 in 10.0 mi West 13.8 mph - N/A   Clear
11:53 AM 55.9 °F - 34.0 °F 44% 30.07 in 10.0 mi WNW 19.6 mph 31.1 mph N/A   Clear
12:53 PM 55.9 °F - 34.0 °F 44% 30.06 in 10.0 mi NW 23.0 mph 29.9 mph N/A   Clear
1:53 PM 55.9 °F - 33.1 °F 42% 30.08 in 10.0 mi NNW 13.8 mph 23.0 mph N/A   Mostly Cloudy
2:53 PM 55.9 °F - 32.0 °F 40% 30.08 in 10.0 mi NW 19.6 mph 26.5 mph N/A   Partly Cloudy
3:53 PM 54.0 °F - 30.9 °F 41% 30.12 in 10.0 mi NW 10.4 mph 21.9 mph N/A   Clear
4:53 PM 52.0 °F - 30.0 °F 43% 30.14 in 10.0 mi NW 8.1 mph - N/A   Clear
5:53 PM 46.9 °F - 30.0 °F 52% 30.17 in 10.0 mi NNW 5.8 mph - N/A   Clear
6:53 PM 45.0 °F 43.5 °F 30.0 °F 56% 30.20 in 10.0 mi West 3.5 mph - N/A   Clear
7:53 PM 46.9 °F - 30.9 °F 54% 30.20 in 10.0 mi WNW 6.9 mph - N/A   Clear
8:53 PM 41.0 °F 39.0 °F 30.0 °F 65% 30.22 in 10.0 mi WSW 3.5 mph - N/A   Clear
9:53 PM 42.1 °F 40.2 °F 30.0 °F 62% 30.22 in 10.0 mi West 3.5 mph - N/A   Clear
11:53 PM 36.0 °F 31.1 °F 28.0 °F 73% 30.25 in 10.0 mi West 5.8 mph - N/A   Clear